EW0923 Weather Reports


Display with metric or nautical units.
time (UTC)temp
F
wind
direction
speed
MPH
gust
MPH
rain 1hr
in
rain 24hr
in
rain mn
in
humidity
%
barometer
mb
20260906125527 70 350 0.0 4.0 0.00 0.00 0.00 79 1013.9
20260906125025 69 42 1.0 6.0 0.00 0.00 0.00 78 1014.0
20260906124547 69 0 3.0 6.0 0.00 0.00 0.00 79 1014.1
20260906124025 69 44 1.0 4.0 0.00 0.00 0.00 79 1014.0
20260906123524 69 59 1.0 4.0 0.00 0.00 0.00 79 1013.9
20260906123050 68 335 1.0 4.0 0.00 0.00 0.00 79 1013.8
20260906122525 68 51 2.0 4.0 0.00 0.00 0.00 80 1013.9
20260906122027 68 321 1.0 4.0 0.00 0.00 0.00 80 1013.9
20260906121547 68 19 0.0 4.0 0.00 0.00 0.00 80 1013.8
20260906121029 67 46 1.0 4.0 0.00 0.00 0.00 82 1013.6
20260906120527 67 13 0.0 4.0 0.00 0.00 0.00 84 1013.7
20260906120101 66 331 1.0 3.0 0.00 0.00 0.00 84 1013.6
20260906115527 66 335 0.0 3.0 0.00 0.00 0.00 86 1013.5
20260906115024 65 327 0.0 1.0 0.00 0.00 0.00 87 1013.5
20260906114551 64 0 0.0 1.0 0.00 0.00 0.00 90 1013.5
20260906114023 63 320 0.0 1.0 0.00 0.00 0.00 92 1013.5
20260906113524 63 0 0.0 0.0 0.00 0.00 0.00 94 1013.4
20260906113047 62 0 0.0 0.0 0.00 0.00 0.00 94 1013.2
20260906112524 62 0 0.0 0.0 0.00 0.00 0.00 94 1013.3
20260906112028 62 0 0.0 0.0 0.00 0.00 0.00 95 1013.2
20260906111546 61 0 0.0 0.0 0.00 0.00 0.00 95 1013.1
20260906111027 60 0 0.0 0.0 0.00 0.00 0.00 95 1013.0
20260906110528 60 0 0.0 0.0 0.00 0.00 0.00 95 1013.0
20260906110054 59 0 0.0 0.0 0.00 0.00 0.00 95 1013.1
20260906105527 59 0 0.0 0.0 0.00 0.00 0.00 95 1012.9
20260906105028 59 0 0.0 0.0 0.00 0.00 0.00 95 1012.9
20260906104551 59 0 0.0 0.0 0.00 0.00 0.00 95 1012.9
20260906104028 59 0 0.0 0.0 0.00 0.00 0.00 95 1012.8
20260906103524 59 0 0.0 0.0 0.00 0.00 0.00 95 1012.7
20260906103048 59 0 0.0 0.0 0.00 0.00 0.00 95 1012.5
20260906102528 59 0 0.0 0.0 0.00 0.00 0.00 95 1012.6
20260906102024 59 0 0.0 0.0 0.00 0.00 0.00 95 1012.5
20260906101547 59 0 0.0 0.0 0.00 0.00 0.00 95 1012.4
20260906101027 59 0 0.0 0.0 0.00 0.00 0.00 95 1012.4
20260906100533 59 0 0.0 0.0 0.00 0.00 0.00 95 1012.3
20260906100045 59 0 0.0 0.0 0.00 0.00 0.00 94 1012.3
20260906095527 59 0 0.0 0.0 0.00 0.00 0.00 94 1012.2
20260906095025 59 0 0.0 0.0 0.00 0.00 0.00 94 1012.3
20260906094557 59 0 0.0 0.0 0.00 0.00 0.00 95 1012.1
20260906094024 59 0 0.0 0.0 0.00 0.00 0.00 94 1012.1
20260906093524 60 0 0.0 0.0 0.00 0.00 0.00 94 1012.0
20260906093051 60 0 0.0 0.0 0.00 0.00 0.00 95 1011.8
20260906092528 60 0 0.0 0.0 0.00 0.00 0.00 95 1011.9
20260906092026 60 0 0.0 0.0 0.00 0.00 0.00 95 1011.8
20260906091548 60 0 0.0 0.0 0.00 0.00 0.00 95 1011.6
20260906091028 60 0 0.0 0.0 0.00 0.00 0.00 95 1011.6
20260906090524 60 0 0.0 0.0 0.00 0.00 0.00 94 1011.6
20260906090056 60 0 0.0 0.0 0.00 0.00 0.00 94 1011.6
20260906085528 60 0 0.0 0.0 0.00 0.00 0.00 94 1011.5
20260906085028 60 0 0.0 0.0 0.00 0.00 0.00 94 1011.7
20260906084549 60 0 0.0 0.0 0.00 0.00 0.00 94 1011.5
20260906084035 60 0 0.0 0.0 0.00 0.00 0.00 94 1011.5
20260906083527 60 0 0.0 0.0 0.00 0.00 0.00 94 1011.3
20260906083048 60 0 0.0 0.0 0.00 0.00 0.00 94 1011.4
20260906082524 60 0 0.0 0.0 0.00 0.00 0.00 94 1011.4
20260906082025 60 0 0.0 0.0 0.00 0.00 0.00 94 1011.2
20260906081548 60 0 0.0 0.0 0.00 0.00 0.00 94 1011.3
20260906081026 60 0 0.0 0.0 0.00 0.00 0.00 94 1011.3
20260906080525 61 0 0.0 0.0 0.00 0.00 0.00 94 1011.4
20260906080048 61 0 0.0 0.0 0.00 0.00 0.00 94 1011.3
20260906075524 61 0 0.0 0.0 0.00 0.00 0.00 94 1011.4
20260906075025 61 0 0.0 0.0 0.00 0.00 0.00 94 1011.3
20260906074543 61 0 0.0 0.0 0.00 0.00 0.00 94 1011.3
20260906074027 61 0 0.0 0.0 0.00 0.00 0.00 94 1011.4
20260906073528 61 0 0.0 0.0 0.00 0.00 0.00 94 1011.4
20260906073046 61 0 0.0 0.0 0.00 0.00 0.00 94 1011.3
20260906072528 61 0 0.0 0.0 0.00 0.00 0.00 94 1011.3
20260906072026 61 0 0.0 0.0 0.00 0.00 0.00 94 1011.3
20260906071549 61 0 0.0 0.0 0.00 0.00 0.00 94 1011.2
20260906071028 61 0 0.0 0.0 0.00 0.00 0.00 94 1011.3
20260906070528 61 0 0.0 0.0 0.00 0.00 0.00 94 1011.4
20260906070048 61 0 0.0 0.0 0.00 0.00 0.00 94 1011.2
20260906065528 61 0 0.0 0.0 0.00 0.00 0.00 94 1011.2
20260906065029 61 0 0.0 0.0 0.00 0.00 0.00 94 1011.2
20260906064552 61 0 0.0 0.0 0.00 0.00 0.00 94 1011.3
20260906064027 61 0 0.0 0.0 0.00 0.00 0.00 93 1011.2
20260906063526 61 0 0.0 0.0 0.00 0.00 0.00 94 1011.2
20260906063048 61 0 0.0 0.0 0.00 0.00 0.00 93 1011.2
20260906062530 61 0 0.0 0.0 0.00 0.00 0.00 93 1011.3
20260906062027 62 0 0.0 0.0 0.00 0.00 0.00 94 1011.4
20260906061551 62 0 0.0 0.0 0.00 0.00 0.00 93 1011.4
20260906061026 62 0 0.0 0.0 0.00 0.00 0.00 94 1011.4
20260906060526 62 0 0.0 0.0 0.00 0.00 0.00 94 1011.4
20260906060059 62 0 0.0 0.0 0.00 0.00 0.00 93 1011.5
20260906055527 62 0 0.0 0.0 0.00 0.00 0.00 93 1011.5
20260906055027 62 0 0.0 0.0 0.00 0.00 0.00 93 1011.5
20260906054606 62 0 0.0 0.0 0.00 0.00 0.00 93 1011.4
20260906054026 62 0 0.0 0.0 0.00 0.00 0.00 93 1011.6
20260906053528 62 0 0.0 0.0 0.00 0.00 0.00 93 1011.5
20260906053046 62 0 0.0 0.0 0.00 0.00 0.00 93 1011.7
20260906052527 62 0 0.0 0.0 0.00 0.00 0.00 93 1011.6
20260906052028 62 0 0.0 0.0 0.00 0.00 0.00 93 1011.6
20260906051546 62 0 0.0 0.0 0.00 0.00 0.00 93 1011.6
20260906051024 62 0 0.0 0.0 0.00 0.00 0.00 92 1011.7
20260906050529 62 0 0.0 0.0 0.00 0.00 0.00 92 1011.7
20260906050045 62 0 0.0 0.0 0.00 0.00 0.00 92 1011.7
20260906045525 63 0 0.0 0.0 0.00 0.01 0.00 92 1011.7
20260906045025 63 0 0.0 0.0 0.00 0.01 0.00 92 1011.8
20260906044550 63 0 0.0 0.0 0.00 0.01 0.00 92 1011.8
20260906044031 63 0 0.0 0.0 0.00 0.01 0.00 92 1011.7
20260906043529 63 0 0.0 0.0 0.00 0.01 0.00 92 1011.8
20260906043047 63 0 0.0 0.0 0.00 0.01 0.00 91 1011.8
20260906042525 63 0 0.0 0.0 0.00 0.01 0.00 91 1011.8
20260906042026 63 0 0.0 0.0 0.00 0.01 0.00 91 1011.7
20260906041548 63 0 0.0 0.0 0.00 0.01 0.00 91 1011.8
20260906041026 63 0 0.0 0.0 0.00 0.01 0.00 91 1011.7
20260906040527 63 0 0.0 0.0 0.00 0.01 0.00 91 1011.7
20260906040048 63 0 0.0 0.0 0.00 0.01 0.00 91 1011.7
20260906035527 63 0 0.0 0.0 0.00 0.01 0.01 91 1011.7
20260906035025 63 0 0.0 0.0 0.00 0.01 0.01 91 1011.6
20260906034601 63 0 0.0 0.0 0.00 0.01 0.01 91 1011.7
20260906034026 64 0 0.0 0.0 0.00 0.01 0.01 91 1011.7
20260906033526 64 0 0.0 0.0 0.00 0.01 0.01 91 1011.7
20260906033047 64 0 0.0 0.0 0.00 0.01 0.01 91 1011.7
20260906032526 64 0 0.0 0.0 0.00 0.01 0.01 91 1011.7
20260906032026 64 0 0.0 0.0 0.00 0.01 0.01 91 1011.5
20260906031556 64 0 0.0 0.0 0.00 0.01 0.01 90 1011.5
20260906031026 64 0 0.0 0.0 0.00 0.01 0.01 90 1011.4
20260906030527 65 0 0.0 0.0 0.00 0.01 0.01 90 1011.4
20260906030045 65 0 0.0 0.0 0.00 0.01 0.01 90 1011.5
20260906025528 65 0 0.0 0.0 0.00 0.01 0.01 90 1011.5
20260906025027 65 0 0.0 0.0 0.00 0.01 0.01 90 1011.4
20260906024553 65 0 0.0 0.0 0.00 0.01 0.01 89 1011.5
20260906024028 65 0 0.0 0.0 0.00 0.01 0.01 89 1011.4
20260906023525 65 0 0.0 0.0 0.00 0.01 0.01 89 1011.4
20260906023048 65 0 0.0 0.0 0.00 0.01 0.01 89 1011.5
20260906022526 65 0 0.0 0.0 0.00 0.01 0.01 89 1011.3
20260906022026 65 0 0.0 0.0 0.00 0.01 0.01 89 1011.2
20260906021551 65 0 0.0 0.0 0.00 0.01 0.01 89 1011.3
20260906021027 65 0 0.0 0.0 0.00 0.01 0.01 89 1011.3
20260906020525 65 0 0.0 0.0 0.00 0.01 0.01 88 1011.3
20260906020052 65 0 0.0 0.0 0.00 0.01 0.01 88 1011.2
20260906015527 66 0 0.0 0.0 0.00 0.01 0.01 87 1011.2
20260906015028 66 0 0.0 0.0 0.00 0.01 0.01 87 1011.1
20260906014551 66 0 0.0 0.0 0.00 0.01 0.01 87 1011.1
20260906014030 66 0 0.0 0.0 0.00 0.01 0.01 86 1011.0
20260906013524 66 0 0.0 0.0 0.00 0.01 0.01 86 1011.1
20260906013049 66 0 0.0 0.0 0.00 0.01 0.01 86 1011.0
20260906012526 66 0 0.0 0.0 0.00 0.01 0.01 86 1010.9
20260906012026 66 0 0.0 0.0 0.00 0.01 0.01 85 1010.9
20260906011546 67 0 0.0 0.0 0.00 0.01 0.01 84 1010.8
20260906011027 67 0 0.0 0.0 0.00 0.01 0.01 83 1010.7
20260906010525 67 0 0.0 0.0 0.00 0.01 0.01 83 1010.8
20260906010136 67 0 0.0 0.0 0.00 0.01 0.01 83 1010.8
20260906005528 67 0 0.0 0.0 0.00 0.01 0.01 82 1010.7
20260906005025 67 0 0.0 0.0 0.00 0.01 0.01 81 1010.7
20260906004556 68 0 0.0 0.0 0.00 0.01 0.01 81 1010.7
20260906004030 68 0 0.0 0.0 0.00 0.01 0.01 80 1010.6
20260906003525 68 0 0.0 0.0 0.00 0.01 0.01 79 1010.7
20260906003045 68 0 0.0 0.0 0.00 0.01 0.01 79 1010.5
20260906002523 68 0 0.0 0.0 0.00 0.01 0.01 78 1010.4
20260906002025 69 0 0.0 0.0 0.00 0.01 0.01 77 1010.4
20260906001557 69 0 0.0 0.0 0.00 0.01 0.01 77 1010.3
20260906001028 69 0 0.0 0.0 0.00 0.01 0.01 76 1010.4
20260906000524 70 0 0.0 0.0 0.00 0.01 0.01 75 1010.3
20260906000049 70 0 0.0 0.0 0.00 0.01 0.01 73 1010.1
20260905235524 70 0 0.0 0.0 0.00 0.01 0.01 73 1010.1
20260905235026 71 0 0.0 0.0 0.00 0.01 0.01 73 1010.0
20260905234548 71 0 0.0 0.0 0.00 0.01 0.01 72 1010.0
20260905234025 72 0 0.0 0.0 0.00 0.01 0.01 70 1009.8
20260905233525 72 0 0.0 0.0 0.00 0.01 0.01 69 1009.7
20260905233046 73 0 0.0 0.0 0.00 0.01 0.01 68 1009.8
20260905232530 74 0 0.0 0.0 0.00 0.01 0.01 66 1009.6
20260905232025 75 0 0.0 0.0 0.00 0.01 0.01 66 1009.7
20260905231555 76 0 0.0 1.0 0.00 0.01 0.01 65 1009.6
20260905231028 76 0 0.0 2.0 0.00 0.01 0.01 61 1009.7
20260905230524 77 0 0.0 3.0 0.00 0.01 0.01 57 1009.7
20260905230048 77 0 0.0 3.0 0.00 0.01 0.01 58 1009.8
20260905225530 77 329 0.0 3.0 0.00 0.01 0.01 57 1009.8
20260905225024 77 341 1.0 3.0 0.00 0.01 0.01 56 1009.7
20260905224555 78 327 1.0 3.0 0.00 0.01 0.01 55 1009.7
20260905224025 78 336 0.0 3.0 0.00 0.01 0.01 55 1009.8
20260905223526 78 318 1.0 3.0 0.00 0.01 0.01 55 1009.6
20260905223056 78 0 1.0 4.0 0.00 0.01 0.01 54 1009.6
20260905222523 78 340 1.0 4.0 0.00 0.01 0.01 53 1009.6
20260905222027 79 318 1.0 4.0 0.00 0.01 0.01 54 1009.6
20260905221548 79 0 1.0 4.0 0.00 0.01 0.01 53 1009.5
20260905221024 79 38 1.0 5.0 0.00 0.01 0.01 52 1009.4
20260905220524 79 0 0.0 5.0 0.00 0.01 0.01 54 1009.5
20260905220048 79 34 2.0 5.0 0.00 0.01 0.01 55 1009.4
20260905215525 79 12 0.0 3.0 0.00 0.01 0.01 54 1009.5
20260905215024 79 307 1.0 8.0 0.00 0.01 0.01 54 1009.5
20260905214546 79 118 1.0 8.0 0.00 0.01 0.01 53 1009.4
20260905214025 79 63 3.0 7.0 0.00 0.01 0.01 52 1009.4
20260905213528 79 100 3.0 5.0 0.00 0.01 0.01 52 1009.4
20260905213051 79 58 1.0 5.0 0.00 0.01 0.01 52 1009.4
20260905212531 79 112 1.0 5.0 0.00 0.01 0.01 53 1009.3
20260905212025 79 36 1.0 7.0 0.00 0.01 0.01 53 1009.3
20260905211547 79 58 2.0 7.0 0.00 0.01 0.01 52 1009.3
20260905211028 80 42 2.0 6.0 0.00 0.01 0.01 51 1009.3
20260905210524 80 67 2.0 5.0 0.00 0.01 0.01 51 1009.2
20260905210112 80 61 2.0 5.0 0.00 0.01 0.01 52 1009.3
20260905205524 80 0 1.0 6.0 0.00 0.01 0.01 52 1009.1
20260905205025 80 36 1.0 10.0 0.00 0.01 0.01 51 1009.1
20260905204542 80 49 3.0 10.0 0.00 0.01 0.01 49 1009.1
20260905204025 81 37 2.0 10.0 0.00 0.01 0.01 48 1009.1
20260905203529 81 30 1.0 6.0 0.00 0.01 0.01 50 1009.2
20260905203050 81 46 1.0 6.0 0.00 0.01 0.01 49 1009.1
20260905202525 81 49 1.0 6.0 0.00 0.01 0.01 49 1009.1
20260905202024 82 65 1.0 6.0 0.00 0.01 0.01 49 1009.1
20260905201544 82 41 2.0 9.0 0.00 0.01 0.01 49 1009.1
20260905201025 81 36 3.0 9.0 0.00 0.01 0.01 46 1009.2
20260905200524 81 65 2.0 8.0 0.00 0.01 0.01 46 1009.2
20260905200110 81 64 3.0 8.0 0.00 0.01 0.01 50 1009.2
20260905195526 81 282 2.0 9.0 0.00 0.01 0.01 50 1009.3
20260905195030 81 312 4.0 9.0 0.00 0.01 0.01 50 1009.4
20260905194552 81 302 2.0 5.0 0.00 0.01 0.01 49 1009.4
20260905194027 81 294 2.0 5.0 0.00 0.01 0.01 49 1009.5
20260905193527 81 311 1.0 9.0 0.00 0.01 0.01 50 1009.5
20260905193046 81 295 2.0 9.0 0.00 0.01 0.01 50 1009.5
20260905192525 81 5 2.0 8.0 0.00 0.01 0.01 49 1009.6
20260905192026 80 0 0.0 8.0 0.00 0.01 0.01 50 1009.7
20260905191546 80 334 3.0 8.0 0.00 0.01 0.01 49 1009.7
20260905191025 81 21 1.0 8.0 0.00 0.01 0.01 49 1009.6
20260905190525 80 328 1.0 3.0 0.00 0.01 0.01 50 1009.7
20260905190053 80 305 1.0 6.0 0.00 0.01 0.01 51 1009.7
20260905185524 81 303 1.0 6.0 0.00 0.01 0.01 49 1009.6
20260905185024 81 331 2.0 6.0 0.00 0.01 0.01 49 1009.7
20260905184607 81 339 0.0 5.0 0.00 0.01 0.01 49 1009.6
20260905184027 80 306 2.0 6.0 0.00 0.01 0.01 49 1009.7
20260905183526 80 35 1.0 6.0 0.00 0.01 0.01 50 1009.8
20260905183049 81 19 3.0 6.0 0.00 0.01 0.01 47 1009.8
20260905182525 81 62 1.0 6.0 0.00 0.01 0.01 48 1009.9
20260905182028 80 0 2.0 6.0 0.00 0.01 0.01 47 1009.9
20260905181548 80 331 2.0 9.0 0.00 0.01 0.01 51 1010.0
20260905181024 79 34 1.0 9.0 0.00 0.01 0.01 51 1010.1
20260905180524 79 333 2.0 10.0 0.00 0.01 0.01 51 1010.1
20260905180053 80 309 3.0 10.0 0.00 0.01 0.01 49 1010.2
20260905175526 79 308 3.0 9.0 0.00 0.01 0.01 51 1010.1
20260905175031 79 317 1.0 9.0 0.00 0.01 0.01 50 1010.2
20260905174550 80 360 3.0 8.0 0.00 0.01 0.01 50 1010.2
20260905174024 80 319 2.0 8.0 0.00 0.01 0.01 50 1010.2
20260905173525 80 300 1.0 9.0 0.00 0.01 0.01 50 1010.3
20260905173052 80 338 2.0 9.0 0.00 0.01 0.01 50 1010.2
20260905172525 80 269 1.0 8.0 0.00 0.01 0.01 53 1010.2
20260905172025 80 58 3.0 9.0 0.00 0.01 0.01 51 1010.3
20260905171545 80 267 3.0 9.0 0.00 0.01 0.01 52 1010.3
20260905171027 80 267 2.0 6.0 0.00 0.01 0.01 51 1010.2
20260905170525 80 298 1.0 9.0 0.00 0.01 0.01 52 1010.2
20260905170043 80 304 2.0 9.0 0.00 0.01 0.01 52 1010.2
20260905165524 80 0 1.0 6.0 0.00 0.01 0.01 55 1010.2
20260905165028 79 313 2.0 7.0 0.00 0.01 0.01 54 1010.3
20260905164549 80 323 2.0 7.0 0.00 0.01 0.01 54 1010.3
20260905164027 80 259 2.0 9.0 0.00 0.01 0.01 54 1010.4
20260905163524 79 336 2.0 9.0 0.00 0.01 0.01 52 1010.4
20260905163047 79 29 2.0 9.0 0.00 0.01 0.01 53 1010.4
20260905162525 79 348 1.0 9.0 0.00 0.01 0.01 53 1010.4
20260905162024 79 310 3.0 10.0 0.00 0.01 0.01 55 1010.6
20260905161544 79 338 4.0 10.0 0.00 0.01 0.01 54 1010.6
20260905161030 79 300 3.0 8.0 0.00 0.01 0.01 55 1010.7
20260905160524 79 66 2.0 8.0 0.00 0.01 0.01 57 1010.6
20260905160042 79 301 2.0 5.0 0.00 0.01 0.01 55 1010.7
20260905155523 80 274 1.0 5.0 0.00 0.01 0.01 57 1010.8
20260905155024 79 72 1.0 5.0 0.00 0.01 0.01 57 1010.8
20260905154556 78 28 1.0 5.0 0.00 0.01 0.01 58 1010.9
20260905154025 79 279 0.0 8.0 0.00 0.01 0.01 59 1010.8
20260905153528 78 325 3.0 9.0 0.00 0.01 0.01 58 1010.8
20260905153046 78 323 3.0 10.0 0.00 0.01 0.01 59 1010.9
20260905152530 78 347 3.0 10.0 0.00 0.01 0.01 59 1011.0
20260905152025 77 264 3.0 11.0 0.00 0.01 0.01 61 1011.0
20260905151609 78 310 3.0 11.0 0.00 0.01 0.01 59 1011.0
20260905151028 78 331 2.0 6.0 0.00 0.01 0.01 59 1010.9
20260905150527 78 335 1.0 6.0 0.00 0.01 0.01 62 1011.0
20260905150041 78 61 2.0 6.0 0.00 0.01 0.01 63 1010.9
20260905145525 76 301 0.0 9.0 0.00 0.01 0.01 65 1010.9
20260905145027 75 321 3.0 9.0 0.00 0.01 0.01 64 1010.8
20260905144549 76 350 3.0 6.0 0.00 0.01 0.01 65 1011.0
20260905144027 76 325 1.0 8.0 0.00 0.01 0.01 66 1010.8
20260905143525 75 309 2.0 8.0 0.00 0.01 0.01 66 1010.7
20260905143048 75 290 1.0 10.0 0.00 0.01 0.01 68 1010.8
20260905142530 75 319 3.0 10.0 0.00 0.01 0.01 66 1010.7
20260905142024 75 335 3.0 8.0 0.00 0.01 0.01 67 1010.7
20260905141555 75 0 1.0 4.0 0.00 0.01 0.01 70 1010.8
20260905141027 74 0 0.0 4.0 0.00 0.01 0.01 72 1010.7
20260905140527 74 269 2.0 9.0 0.00 0.01 0.01 70 1010.7
20260905140054 73 327 3.0 9.0 0.00 0.01 0.01 69 1010.6
20260905135530 73 311 1.0 6.0 0.00 0.01 0.01 70 1010.6
20260905135025 73 348 2.0 6.0 0.00 0.01 0.01 69 1010.5
20260905134548 73 343 1.0 8.0 0.00 0.01 0.01 69 1010.3
20260905134024 73 331 1.0 8.0 0.00 0.01 0.01 71 1010.4
20260905133528 73 330 3.0 8.0 0.00 0.01 0.01 70 1010.5
20260905133047 72 321 1.0 4.0 0.00 0.01 0.01 71 1010.6
20260905132529 72 320 1.0 6.0 0.00 0.01 0.01 71 1010.5
20260905132029 72 313 2.0 6.0 0.00 0.01 0.01 72 1010.3
20260905131602 72 9 2.0 5.0 0.00 0.01 0.01 72 1010.4
20260905131030 72 321 1.0 5.0 0.00 0.01 0.01 72 1010.5
20260905130527 72 333 2.0 9.0 0.00 0.01 0.01 72 1010.4
20260905130057 72 325 3.0 9.0 0.00 0.01 0.01 71 1010.3